Home > Weather > Sierra Vista > Past weeks

Flag for U.S.A. Weather for the Past 2 Weeks in Sierra Vista, Arizona, U.S.A.

Now
47 °F

Clear.


Feels Like: 45 °F
Forecast: 45 / 75 °F
Wind: 3 mph from North

Location: Fort Huachuca

Current Time: Feb 14, 2016 at 7:50:15 AM

Latest Report: Feb 14, 2016 at 6:58 AM


Visibility: 10 mi

Pressure: 30.00 "Hg (25.34 "Hg at 1390m altitude)

Humidity: 17%

Dew point: 4 °F

Location of Sierra VistaLocation

Historic Weather in Sierra Vista — Graph

°F

Sierra Vista Temperature Yesterday

Maximum temperature yesterday: 79 °F (at 2:58 PM)
Minimum temperature yesterday: 45 °F (at 5:58 AM)
Average temperature yesterday: 62 °F

High & Low Weather Summary for the Past Weeks

 TemperatureHumidityPressure
High79 °F (Feb 13, 2:58 PM)100% (Feb 1, 6:58 AM)30.38 "Hg (Feb 1, 6:58 AM)
Low22 °F (Feb 3, 6:58 AM)4% (Feb 11, 3:58 PM)29.56 "Hg (Feb 1, 1:58 AM)
Average50 °F31%30.10 "Hg
* Reported Jan 30 5:58 AM — Feb 14 5:58 AM, Sierra Vista, Weather by CustomWeather, © 2016

Note: Actual official high and low records may vary slightly from our data, if they occured in-between our weather recording intervals... More about our weather records

Advertising

Sierra Vista Weather History for the Previous 24 Hours

 ConditionsComfort  
Time TempWeatherWind HumidityBarometerVisibility
5:58 AM
Sun, Feb 14
51 °FClear.9 mph12%29.96 "Hg10 mi
4:58 AM51 °FClear.12 mph12%29.93 "Hg10 mi
3:58 AM54 °FClear.12 mph12%29.92 "Hg10 mi
2:58 AM54 °FClear.12 mph14%29.94 "Hg10 mi
1:58 AM53 °FClear.10 mph17%29.94 "Hg10 mi
12:58 AM55 °FClear.9 mph17%29.95 "Hg10 mi
11:58 PM
Sat, Feb 13
56 °FClear.10 mph15%29.97 "Hg10 mi
10:58 PM56 °FClear.10 mph16%29.98 "Hg10 mi
9:58 PM56 °FClear.13 mph20%29.99 "Hg10 mi
8:58 PM59 °FClear.13 mph17%29.99 "Hg10 mi
7:58 PM62 °FClear.14 mph14%30.00 "Hg10 mi
6:58 PM63 °FClear.14 mph14%30.00 "Hg10 mi
5:58 PM69 °FSunny.10 mph11%29.98 "Hg9 mi
4:58 PM76 °FSunny.13 mph8%29.95 "Hg8 mi
3:58 PM78 °FSunny.10 mph8%29.92 "Hg8 mi
2:58 PM79 °FSunny.9 mph7%29.93 "Hg9 mi
1:58 PM78 °FSunny.9 mph8%29.97 "Hg9 mi
12:58 PM77 °FSunny.1 mph8%29.99 "Hg9 mi
11:58 AM75 °FSunny.8 mph8%30.04 "Hg8 mi
10:58 AM71 °FSunny.7 mph9%30.07 "Hg8 mi
9:58 AM68 °FSunny.7 mph11%30.07 "Hg9 mi
8:58 AM60 °FSunny.1 mph16%30.09 "Hg9 mi
7:58 AM50 °FSunny.No wind31%30.11 "Hg7 mi
Weather by CustomWeather, © 2016

See weather overviewHow to use our weather pages